Findlay, OH

11:59 AM EST on December 14, 2019 (GMT -0500)
Findlay

Weather History for KFDY - October, 2019

Change the Weather History Date:

Thursday, October 24, 2019

  Actual Average Record
Temperature  
Mean Temperature 54 °F -  
Max Temperature 62 °F 60 °F 81 °F (1963)
Min Temperature 48 °F 41 °F 24 °F (1969)
Degree Days  
Heating Degree Days 10    
Growing Degree Days 4 (Base 50)    
Moisture  
Dew Point 40 °F    
Average Humidity 57    
Maximum Humidity 80    
Minimum Humidity 42    
Precipitation  
Precipitation 0.00 in - - ()
Sea Level Pressure  
Sea Level Pressure 30.18 in    
Wind  
Wind Speed 12 mph (West)    
Max Wind Speed 22 mph    
Max Gust Speed 30 mph    
Visibility 10 miles    
Events      
Averages and records for this station are not official NWS values.
T = Trace of Precipitation, MM = Missing Value Source: NWS Daily Summary

Daily Weather History Graph

Daily Weather History Graph

Search for Another Location

Airport or City:

Astronomy

Oct. 24, 2019 Rise Set
Actual Time 7:55 AM EDT 6:41 PM EDT
Civil Twilight 7:27 AM EDT 7:09 PM EDT
Nautical Twilight 6:55 AM EDT 7:41 PM EDT
Astronomical Twilight 6:23 AM EDT 8:13 PM EDT
Moon 3:21 AM EDT (10/24) 5:10 PM EDT (10/24)
Length of Visible Light 11h 41m
Length of Day
10h 45m
Waning Crescent, 17% of the Moon is Illuminated
Oct 24
Waning Crescent
Oct 27
New
Nov 4
First Quarter
Nov 12
Full
Nov 19
Last Quarter

Hourly Weather History & Observations

Time (EDT) Temp. Dew Point Humidity Pressure Visibility Wind Dir Wind Speed Gust Speed Precip Events Conditions
12:53 AM 53.1 °F 35.1 °F 50% 30.06 in 10.0 mi SSW 13.8 mph - N/A   Clear
1:53 AM 54.0 °F 35.1 °F 49% 30.05 in 10.0 mi SSW 21.9 mph 29.9 mph N/A   Partly Cloudy
2:53 AM 53.1 °F 35.1 °F 50% 30.06 in 10.0 mi SSW 15.0 mph - N/A   Clear
3:53 AM 55.0 °F 35.1 °F 47% 30.05 in 10.0 mi SSW 15.0 mph - N/A   Mostly Cloudy
4:53 AM 54.0 °F 36.0 °F 51% 30.06 in 10.0 mi South 15.0 mph - N/A   Overcast
5:53 AM 57.9 °F 35.1 °F 42% 30.08 in 10.0 mi SW 18.4 mph 28.8 mph N/A   Overcast
6:53 AM 57.0 °F 36.0 °F 45% 30.10 in 10.0 mi SW 12.7 mph - N/A   Overcast
7:53 AM 55.9 °F 37.0 °F 49% 30.12 in 10.0 mi SW 12.7 mph - N/A   Overcast
8:53 AM 55.9 °F 37.9 °F 51% 30.15 in 10.0 mi SW 9.2 mph - N/A   Overcast
9:53 AM 55.9 °F 39.0 °F 53% 30.17 in 10.0 mi SW 9.2 mph - N/A   Overcast
10:53 AM 57.0 °F 41.0 °F 55% 30.19 in 10.0 mi WSW 9.2 mph - N/A   Mostly Cloudy
11:53 AM 61.0 °F 43.0 °F 52% 30.21 in 10.0 mi WNW 12.7 mph - N/A   Clear
12:53 PM 59.0 °F 44.1 °F 58% 30.22 in 10.0 mi NNW 11.5 mph - N/A   Partly Cloudy
1:53 PM 59.0 °F 44.1 °F 58% 30.22 in 10.0 mi NNW 9.2 mph - N/A   Clear
2:53 PM 59.0 °F 44.1 °F 58% 30.22 in 10.0 mi NW 5.8 mph - N/A   Clear
3:53 PM 60.1 °F 44.1 °F 55% 30.22 in 10.0 mi West 4.6 mph - N/A   Clear
4:53 PM 61.0 °F 44.1 °F 54% 30.23 in 10.0 mi North 5.8 mph - N/A   Clear
5:53 PM 57.9 °F 43.0 °F 58% 30.23 in 10.0 mi NW 6.9 mph - N/A   Clear
6:53 PM 54.0 °F 42.1 °F 64% 30.24 in 10.0 mi NNW 5.8 mph - N/A   Clear
7:53 PM 52.0 °F 42.1 °F 69% 30.26 in 10.0 mi NNW 5.8 mph - N/A   Clear
8:53 PM 51.1 °F 41.0 °F 68% 30.26 in 10.0 mi NNW 5.8 mph - N/A   Clear
9:53 PM 48.9 °F 39.9 °F 71% 30.28 in 10.0 mi North 4.6 mph - N/A   Clear
10:53 PM 48.9 °F 41.0 °F 74% 30.29 in 10.0 mi NNW 3.5 mph - N/A   Clear
11:53 PM 48.9 °F 43.0 °F 80% 30.30 in 10.0 mi NW 4.6 mph - N/A   Scattered Clouds